Tracking 35275 objects as of 8-Sep-2026
HD Live streaming from Space Station
objects crossing your sky now

ARDUSAT-2


ARDUSAT-2 is no longer on orbit
ARDUSAT-2 is classified as:


NORAD ID: 39570
Int'l Code: 1998-067EP
Launch date: November 20, 1998
Source: United States (US)
Launch site: TYURATAM MISSILE AND SPACE COMPLEX (TTMTR)
Decay date: 2014-05-23

Uplink (MHz):
Downlink (MHz): 437.xxx
Beacon (MHz):
Mode: 9k6 MSK CCSDS
Call sign: WG9XFC2
Status: Reentered

Your satellite tracking list
Your tracking list is empty




NASA's NSSDC Master Catalog

Two Line Element Set (TLE):
1 39570U 98067EP  14143.05577057  .11509081  12469-4  11769-2 0  9990
2 39570 051.5911 212.4729 0009494 355.0964 008.1250 16.36920037 13112
Source of the keplerian elements: AFSPC